Location: Gouvernes
(48.8601°N, 2.6907°E)
Time: 18:05:26
(UTC+00:00)

deb Kosmos-1275 - Visible Passes

Search period start: 11 August 2022 00:00
Search period end: 21 August 2022 00:00
Orbit: 760 x 858 km, 83.1° (Epoch: 10 August)

Date Brightness Start Highest point End Pass type
(mag) Time Alt. Az. Time Alt. Az. Time Alt. Az.
11 Aug ? 21:27:17 10° N 21:32:03 29° ENE 21:33:45 25° E visible
11 Aug ? 23:08:53 10° NNW 23:14:02 44° W 23:14:53 41° WSW visible
12 Aug ? 21:03:21 10° NNE 21:07:33 22° ENE 21:09:38 18° E visible
12 Aug ? 22:44:29 10° NNW 22:49:51 61° W 22:50:46 53° SW visible
13 Aug ? 20:39:36 10° NNE 20:43:00 17° ENE 20:45:30 13° E visible
13 Aug ? 22:20:09 10° N 22:25:37 84° W 22:26:38 60° S visible
14 Aug ? 00:04:14 10° NW 00:06:27 13° WNW 00:07:46 12° W visible
14 Aug ? 20:16:15 10° NE 20:18:24 12° ENE 20:20:32 10° E visible
14 Aug ? 21:55:53 10° N 22:01:20 72° E 22:02:31 53° SE visible
14 Aug ? 23:39:00 10° NW 23:42:28 18° W 23:43:39 16° W visible
15 Aug ? 21:31:41 10° N 21:36:59 52° ENE 21:38:25 41° ESE visible
15 Aug ? 23:14:11 10° NNW 23:18:24 24° W 23:19:33 22° WSW visible
16 Aug ? 21:07:33 10° N 21:12:35 38° ENE 21:14:19 30° ESE visible
16 Aug ? 22:49:33 10° NNW 22:54:18 33° W 22:55:27 29° WSW visible
17 Aug ? 20:43:31 10° N 20:48:08 28° ENE 20:50:14 22° ESE visible
17 Aug ? 22:25:04 10° NNW 22:30:09 45° W 22:31:21 38° SW visible
18 Aug ? 20:19:35 10° NNE 20:23:37 21° ENE 20:26:09 15° E visible
18 Aug ? 22:00:39 10° NNW 22:05:57 62° W 22:07:16 46° SSW visible
19 Aug ? 19:55:52 10° NNE 19:59:03 16° ENE 20:02:04 10° E visible
19 Aug ? 21:36:18 10° N 21:41:42 86° W 21:43:13 48° S visible
19 Aug ? 23:20:19 10° NW 23:22:33 13° WNW 23:24:21 11° W visible
20 Aug ? 19:32:39 10° NE 19:34:26 12° ENE 19:36:12 10° ENE visible
20 Aug ? 21:12:02 10° N 21:17:23 70° E 21:19:09 41° SSE visible
20 Aug ? 22:55:06 10° NW 22:58:33 18° W 23:00:18 15° WSW visible
